Location: Fort Wayne
(41.1310°N, 85.1290°W)
Time: 16:01:10
(UTC-04:00)

Oscar 19 - Visible Passes

Search period start: 21 August 2014 00:00
Search period end: 31 August 2014 00:00
Orbit: 775 x 791 km, 98.5° (Epoch: 21 August)

Date Brightness Start Highest point End Pass type
(mag) Time Alt. Az. Time Alt. Az. Time Alt. Az.
21 Aug 12.8 02:21:17 10° NE 02:23:30 19° ENE 02:23:30 19° ENE visible
21 Aug 11.4 03:59:53 10° N 04:04:04 42° NW 04:04:04 42° NW visible
22 Aug 11.3 03:28:08 10° NNE 03:32:03 52° N 03:32:03 52° N visible
22 Aug 12.7 05:10:06 10° NW 05:11:54 12° WNW 05:12:37 12° WNW visible
23 Aug 12.0 02:56:45 10° NNE 03:00:01 34° NE 03:00:01 34° NE visible
23 Aug 12.1 04:36:51 10° NNW 04:40:35 22° WNW 04:40:35 22° WNW visible
24 Aug 12.8 02:25:50 10° NE 02:28:00 19° ENE 02:28:00 19° ENE visible
24 Aug 11.6 04:04:39 10° N 04:08:34 37° NW 04:08:34 37° NW visible
25 Aug 11.5 03:32:51 10° N 03:36:33 47° N 03:36:33 47° N visible
25 Aug 12.8 05:15:29 10° NW 05:16:32 11° WNW 05:17:07 10° WNW visible
26 Aug 12.1 03:01:24 10° NNE 03:04:31 34° NE 03:04:31 34° NE visible
26 Aug 12.3 04:41:43 10° NNW 04:45:05 20° WNW 04:45:05 20° WNW visible
27 Aug 12.8 02:30:23 10° NE 02:32:30 20° ENE 02:32:30 20° ENE visible
27 Aug 11.8 04:09:25 10° N 04:13:04 33° NW 04:13:04 33° NW visible
28 Aug 13.4 02:00:22 10° ENE 02:00:28 10° ENE 02:00:28 10° ENE visible
28 Aug 11.6 03:37:34 10° N 03:41:02 42° N 03:41:02 42° N visible
29 Aug 12.2 03:06:04 10° NNE 03:09:01 33° NE 03:09:01 33° NE visible
29 Aug 12.4 04:46:36 10° NNW 04:49:35 18° NW 04:49:35 18° NW visible
30 Aug 12.9 02:34:58 10° NE 02:36:59 20° NE 02:36:59 20° NE visible
30 Aug 11.9 04:14:12 10° N 04:17:33 29° NW 04:17:33 29° NW visible
